This demonstration page uses our WeatherBlox Daily Observations layout. Learn more.

Left ArrowRight Arrow

44.89941, -97.11507

Hourly Observations for November 20, 2019

Temp ( °F °C ) Dew Point ( °F °C ) Humidity (%) Winds ( mph kmh ) Pressure ( in mb ) Visibility ( mi km ) Precip ( " mm )
12:53 am 00:53 Cloudy 34 1.1 32 0 92 92 E 5 7 29.95 1014 10 16 0.00 0.00
1:53 am 01:53 Clear 35 1.7 32 0 89 89 ESE 7 11 29.95 1014 10 16 0.00 0.00
2:53 am 02:53 Mostly Cloudy 35 1.7 32 0 89 89 ESE 9 15 29.94 1014 10 16 0.00 0.00
3:53 am 03:53 Clear 35 1.7 32 0 89 89 ESE 9 15 29.93 1014 10 16 0.00 0.00
4:53 am 04:53 Clear 35 1.7 32 0 89 89 ESE 9 15 29.92 1013 10 16 0.00 0.00
5:53 am 05:53 Clear 35 1.7 32 0 89 89 ESE 12 19 29.91 1013 10 16 0.00 0.00
6:53 am 06:53 Clear 35 1.7 33 0.6 93 93 ESE 14 22 29.88 1012 10 16 0.00 0.00
7:53 am 07:53 Sunny 35 1.7 33 0.6 93 93 ESE 15 24 29.88 1012 10 16 0.00 0.00
8:53 am 08:53 Sunny 37 2.8 33 0.6 86 86 ESE 14 22 29.87 1012 10 16 0.00 0.00
9:53 am 09:53 Sunny 39 3.9 34 1.1 82 82 ESE 10 17 29.85 1011 10 16 0.00 0.00
10:53 am 10:53 Sunny 40 4.4 35 1.7 83 83 ESE 12 19 29.83 1010 10 16 0.00 0.00
11:53 am 11:53 Sunny 42 5.6 36 2.2 79 79 ESE 12 19 29.81 1010 10 16 0.00 0.00
12:53 pm 12:53 Sunny 44 6.7 37 2.8 76 76 E 9 15 29.80 1009 10 16 0.00 0.00
1:53 pm 13:53 Sunny 46 7.8 38 3.3 73 73 E 7 11 29.77 1008 10 16 0.00 0.00
2:36 pm 14:36 Mostly Cloudy 47 8.3 39 3.9 74 74 ENE 12 19 29.75 1007 10 16 0.00 0.00
2:53 pm 14:53 Cloudy 45 7.2 39 3.9 80 80 ENE 10 17 29.77 1008 10 16 0.00 0.00
3:53 pm 15:53 Cloudy 43 6.1 38 3.3 82 82 ENE 14 22 29.78 1008 10 16 0.00 0.00
4:53 pm 16:53 Cloudy 42 5.6 39 3.9 89 89 ENE 13 20 29.77 1008 10 16 0.00 0.00
5:53 pm 17:53 Cloudy 42 5.6 38 3.3 85 85 NE 8 13 29.80 1009 10 16 0.00 0.00
6:53 pm 18:53 Cloudy 40 4.4 38 3.3 93 93 NNE 10 17 29.80 1009 10 16 0.00 0.00
7:41 pm 19:41 Cloudy 40 4.4 37 2.8 89 89 NNE 13 20 29.81 1009 10 16 0.00 0.00
7:53 pm 19:53 Cloudy 40 4.4 37 2.8 89 89 NNE 13 20 29.80 1009 10 16 0.00 0.00
8:13 pm 20:13 Cloudy 40 4.4 36 2.2 86 86 N 12 19 29.81 1009 10 16 0.00 0.00
8:38 pm 20:38 Cloudy 38 3.3 35 1.7 89 89 N 16 26 29.82 1010 10 16 0.00 0.00
8:53 pm 20:53 Cloudy 37 2.8 35 1.7 93 93 NNE 15 24 29.80 1009 8 13 0.00 0.00
9:53 pm 21:53 Cloudy with Mist and Fog 36 2.2 35 1.7 97 97 N 17 28 29.83 1010 4 6 0.00 0.00
10:03 pm 22:03 Cloudy with Mist and Fog 36 2.2 35 1.7 97 97 N 14 22 29.85 1011 3 5 0.00 0.00
10:12 pm 22:12 Cloudy with Mist and Fog 36 2.2 35 1.7 97 97 N 16 26 29.85 1011 3 4 0.00 0.00
10:22 pm 22:22 Cloudy with Mist and Fog 35 1.7 35 1.7 100 100 N 16 26 29.86 1011 3 5 0.00 0.00
10:53 pm 22:53 Cloudy with Mist and Fog 35 1.7 34 1.1 96 96 N 18 30 29.83 1010 4 6 0.00 0.00
11:53 pm 23:53 Cloudy 33 0.6 32 0 96 96 N 20 31 29.84 1011 7 11 0.00 0.00

Powered by AerisWeather